Вернуться в каталог

COSMOS 1375 DEB

АктивенLEO
NORAD 16204·DEBRIS·🇷🇺 Russia

Запущен Jun 6, 1982 с Plesetsk Cosmodrome

Loading…

Ближайшие Пролёты (ближайшие 24 часа)

TLE

СвежийSource: Space-Track

Эпоха: Sep 14, 2026, 10:30 UTC

1 16204U 82055F   26257.43768899 -.00000067  00000-0  14322-4 0  9999
2 16204  65.8313 244.6494 0015138  61.0210  95.1563 13.80042483 60077

Отслеживайте COSMOS 1375 DEB в реальном времени с AllMySat

Download on the App Store